This demonstration page uses our WeatherBlox Daily Observations layout. Learn more.

Left ArrowRight Arrow

41.12389, -100.76542

Hourly Observations for March 24, 2020

Temp ( °F °C ) Dew Point ( °F °C ) Humidity (%) Winds ( mph kmh ) Pressure ( in mb ) Visibility ( mi km ) Precip ( " mm )
12:53 am 00:53 Clear 38 3.3 35 1.7 89 89 SE 6 9 29.89 1012 7 11 0.00 0.00
1:25 am 01:25 Mostly Cloudy 37 2.8 35 1.7 93 93 Calm 29.94 1014 8 13 0.00 0.00
1:53 am 01:53 Mostly Cloudy 40 4.4 37 2.8 89 89 SE 8 13 29.88 1012 10 16 0.00 0.00
2:53 am 02:53 Partly Cloudy 40 4.4 37 2.8 89 89 SSE 6 9 29.85 1011 10 16 0.00 0.00
3:33 am 03:33 Mostly Cloudy 41 5 37 2.8 86 86 SE 6 9 29.90 1012 10 16 0.00 0.00
3:53 am 03:53 Partly Cloudy 40 4.4 37 2.8 89 89 Calm 29.83 1010 10 16 0.00 0.00
4:53 am 04:53 Clear 39 3.9 37 2.8 93 93 Calm 29.83 1010 10 16 0.00 0.00
5:29 am 05:29 Clear with Mist and Fog 36 2.2 34 1.1 93 93 SSE 5 7 29.91 1013 2 2 0.00 0.00
5:31 am 05:31 Mostly Cloudy with Mist and Fog 35 1.7 33 0.6 93 93 SSE 5 7 29.91 1013 1 2 0.00 0.00
5:38 am 05:38 Mostly Cloudy with Fog 36 2.2 34 1.1 93 93 Calm 29.91 1013 1 1 0.00 0.00
5:53 am 05:53 Mostly Cloudy with Fog 36 2.2 34 1.1 93 93 Calm 29.83 1010 1 1 0.00 0.00
6:05 am 06:05 Mostly Cloudy with Fog 34 1.1 32 0 92 92 Calm 29.92 1013 0 0 0.00 0.00
6:53 am 06:53 Mostly Cloudy with Fog 33 0.6 31 -0.6 92 92 NW 5 7 29.85 1011 1 1 0.00 0.00
7:04 am 07:04 Cloudy with Mist and Fog 33 0.6 32 0 96 96 NW 5 7 29.94 1014 2 2 0.00 0.00
7:14 am 07:14 Mostly Cloudy with Mist and Fog 34 1.1 33 0.6 97 97 Calm 29.93 1014 1 1 0.00 0.00
7:53 am 07:53 Cloudy with Fog 36 2.2 34 1.1 93 93 W 7 11 29.87 1011 1 1 0.00 0.00
8:00 am 08:00 Mostly Cloudy with Fog 36 2.2 34 1.1 93 93 W 6 9 29.94 1014 1 1 0.00 0.00
8:17 am 08:17 Mostly Cloudy with Fog 36 2.2 35 1.7 97 97 Calm 29.95 1014 0 0 0.00 0.00
8:35 am 08:35 Mostly Cloudy with Fog 38 3.3 37 2.8 97 97 Calm 29.94 1014 1 1 0.00 0.00
8:40 am 08:40 Partly Cloudy with Mist and Fog 38 3.3 36 2.2 93 93 Calm 29.94 1014 1 2 0.00 0.00
8:42 am 08:42 Partly Cloudy with Mist and Fog 38 3.3 36 2.2 93 93 Calm 29.94 1014 3 4 0.00 0.00
8:49 am 08:49 Sunny 37 3 36 2 93 93 W 3 6 29.94 1014 10 16 0.00 0.00
8:53 am 08:53 Sunny 39 3.9 36 2.2 89 89 W 3 6 29.88 1012 10 16 0.00 0.00
9:53 am 09:53 Sunny 47 8.3 37 2.8 69 69 W 7 11 29.89 1012 10 16 0.00 0.00
10:53 am 10:53 Sunny 54 12.2 37 2.8 53 53 WNW 8 13 29.88 1012 10 16 0.00 0.00
11:53 am 11:53 Sunny 61 16.1 35 1.7 38 38 NW 15 24 29.86 1011 10 16 0.00 0.00
12:53 pm 12:53 Sunny 66 18.9 32 0 28 28 NW 13 20 29.83 1010 10 16 0.00 0.00
1:53 pm 13:53 Sunny 69 20.6 29 -1.7 22 22 WNW 23 37 29.79 1009 10 16 0.00 0.00
2:53 pm 14:53 Sunny 70 21.1 30 -1.1 23 23 NW 25 41 29.78 1009 10 16 0.00 0.00
3:53 pm 15:53 Sunny 71 21.7 29 -1.7 21 21 WNW 17 28 29.76 1008 10 16 0.00 0.00
4:53 pm 16:53 Mostly Sunny 72 22.2 29 -1.7 20 20 NW 16 26 29.75 1008 10 16 0.00 0.00
5:53 pm 17:53 Mostly Sunny 71 21.7 28 -2.2 20 20 NNW 15 24 29.75 1007 10 16 0.00 0.00
6:53 pm 18:53 Sunny 63 17.2 31 -0.6 30 30 NNW 9 15 29.77 1008 10 16 0.00 0.00
7:53 pm 19:53 Sunny 63 17.2 28 -2.2 27 27 NW 3 6 29.78 1008 10 16 0.00 0.00
8:53 pm 20:53 Clear 53 11.7 29 -1.7 40 40 Calm 29.80 1009 10 16 0.00 0.00
9:53 pm 21:53 Clear 48 8.9 29 -1.7 48 48 Calm 29.79 1009 10 16 0.00 0.00
10:53 pm 22:53 Clear 41 5 30 -1.1 65 65 Calm 29.80 1009 10 16 0.00 0.00
11:53 pm 23:53 Mostly Clear 40 4.4 30 -1.1 68 68 Calm 29.79 1009 10 16 0.00 0.00

Powered by AerisWeather